Hourly Weather Holuzne

Today, 16 April, Friday

Time Temperature Precipitation Wind Pressure Humidity
00:00 -1°C° 0.8 mm 4 mps 737 mmHg 98%
01:00 -1°C° 0.8 mm 4 mps 737 mmHg 98%
02:00 0°C° 0 mm 4 mps 737 mmHg 97%
03:00 0°C° 0.9 mm 4 mps 736 mmHg 97%
04:00 0°C° 0.9 mm 4 mps 736 mmHg 97%
05:00 0°C° 0.9 mm 4 mps 736 mmHg 98%
06:00 0°C° 0.9 mm 4 mps 736 mmHg 97%
07:00 +1°C° 0.9 mm 4 mps 736 mmHg 97%
08:00 +1°C° 0 mm 4 mps 736 mmHg 97%
09:00 +1°C° 0.7 mm 4 mps 736 mmHg 97%
10:00 +2°C° 0.7 mm 3 mps 736 mmHg 97%
11:00 +2°C° 0.7 mm 3 mps 736 mmHg 97%
12:00 +2°C° 0.2 mm 3 mps 736 mmHg 97%
13:00 +2°C° 0.2 mm 3 mps 736 mmHg 97%
14:00 +2°C° 0.2 mm 3 mps 736 mmHg 97%
15:00 +2°C° 0.6 mm 3 mps 736 mmHg 97%
16:00 +2°C° 0.6 mm 3 mps 736 mmHg 97%
17:00 +2°C° 0.6 mm 3 mps 736 mmHg 97%
18:00 +3°C° 0.6 mm 4 mps 736 mmHg 97%
19:00 +3°C° 0.6 mm 4 mps 737 mmHg 98%
20:00 +3°C° 0.6 mm 4 mps 737 mmHg 98%
21:00 +3°C° 0.4 mm 4 mps 737 mmHg 98%
22:00 +3°C° 0.4 mm 4 mps 737 mmHg 98%
23:00 +3°C° 0.4 mm 4 mps 737 mmHg 98%

Tomorrow, 17 April, Saturday

Time Temperature Precipitation Wind Pressure Humidity
00:00 +3°C° 0.6 mm 4 mps 737 mmHg 97%
01:00 +1°C° 0.6 mm 5 mps 737 mmHg 97%
02:00 +1°C° 0.6 mm 5 mps 738 mmHg 97%
03:00 +1°C° 0.3 mm 5 mps 738 mmHg 97%
04:00 +1°C° 0.3 mm 4 mps 738 mmHg 97%
05:00 0°C° 0.3 mm 4 mps 738 mmHg 97%
06:00 0°C° 0.2 mm 4 mps 739 mmHg 97%
07:00 +1°C° 0.2 mm 3 mps 739 mmHg 97%
08:00 +1°C° 0.2 mm 3 mps 739 mmHg 97%
09:00 +2°C° 0.1 mm 3 mps 740 mmHg 97%
10:00 +2°C° 0.1 mm 3 mps 740 mmHg 97%
11:00 +2°C° 0.1 mm 3 mps 740 mmHg 96%
12:00 +4°C° 0 mm 2 mps 740 mmHg 95%
13:00 +4°C° 0 mm 2 mps 741 mmHg 94%
14:00 +4°C° 0 mm 2 mps 741 mmHg 93%
15:00 +5°C° 0 mm 2 mps 741 mmHg 90%
16:00 +6°C° 0 mm 1 mps 741 mmHg 88%
17:00 +7°C° 0 mm 1 mps 741 mmHg 85%
18:00 +6°C° 0 mm 1 mps 741 mmHg 86%
19:00 +5°C° 0 mm 0 mps 741 mmHg 87%
20:00 +5°C° 0 mm 0 mps 741 mmHg 88%
21:00 +5°C° 0 mm 0 mps 741 mmHg 88%
22:00 +5°C° 0 mm 1 mps 741 mmHg 89%
23:00 +5°C° 0 mm 1 mps 741 mmHg 90%

Day after tomorrow, 18 April, Sunday

Time Temperature Precipitation Wind Pressure Humidity
00:00 +5°C° 0 mm 1 mps 741 mmHg 90%
01:00 +4°C° 0 mm 1 mps 741 mmHg 91%
02:00 +4°C° 0 mm 1 mps 741 mmHg 91%
03:00 +4°C° 0 mm 1 mps 741 mmHg 91%
04:00 +3°C° 0 mm 1 mps 741 mmHg 92%
05:00 +3°C° 0 mm 1 mps 740 mmHg 92%
06:00 +4°C° 0 mm 1 mps 740 mmHg 89%
07:00 +5°C° 0 mm 1 mps 740 mmHg 85%
08:00 +6°C° 0 mm 1 mps 741 mmHg 82%
09:00 +8°C° 0 mm 1 mps 740 mmHg 77%
10:00 +10°C° 0 mm 1 mps 740 mmHg 72%
11:00 +10°C° 0 mm 2 mps 740 mmHg 68%
12:00 +12°C° 0 mm 2 mps 740 mmHg 66%
13:00 +12°C° 0 mm 2 mps 740 mmHg 65%
14:00 +13°C° 0 mm 2 mps 740 mmHg 63%
15:00 +12°C° 0 mm 2 mps 739 mmHg 68%
16:00 +12°C° 0 mm 2 mps 739 mmHg 73%
17:00 +12°C° 0 mm 2 mps 739 mmHg 79%
18:00 +10°C° 0.1 mm 2 mps 739 mmHg 83%
19:00 +9°C° 0.1 mm 2 mps 739 mmHg 88%
20:00 +8°C° 0.1 mm 2 mps 740 mmHg 92%
21:00 +8°C° 0 mm 2 mps 740 mmHg 92%
22:00 +7°C° 0 mm 2 mps 740 mmHg 92%
23:00 +7°C° 0 mm 2 mps 740 mmHg 91%

19 April, Monday

Time Temperature Precipitation Wind Pressure Humidity
00:00 +6°C° 0 mm 2 mps 739 mmHg 92%
01:00 +5°C° 0 mm 2 mps 739 mmHg 92%
02:00 +4°C° 0 mm 2 mps 739 mmHg 93%
03:00 +4°C° 0 mm 2 mps 739 mmHg 92%
04:00 +4°C° 0 mm 2 mps 739 mmHg 92%
05:00 +3°C° 0 mm 2 mps 739 mmHg 91%
06:00 +4°C° 0 mm 2 mps 739 mmHg 86%
07:00 +6°C° 0 mm 2 mps 739 mmHg 81%
08:00 +7°C° 0 mm 3 mps 739 mmHg 75%
09:00 +8°C° 0 mm 3 mps 739 mmHg 70%
10:00 +10°C° 0 mm 3 mps 738 mmHg 65%
11:00 +11°C° 0 mm 3 mps 738 mmHg 60%
12:00 +11°C° 0.1 mm 3 mps 738 mmHg 59%
13:00 +12°C° 0.1 mm 3 mps 737 mmHg 57%
14:00 +12°C° 0.1 mm 3 mps 737 mmHg 56%
15:00 +11°C° 0.2 mm 3 mps 737 mmHg 61%
16:00 +11°C° 0.2 mm 3 mps 737 mmHg 66%
17:00 +10°C° 0.2 mm 4 mps 736 mmHg 71%
18:00 +9°C° 0.1 mm 3 mps 736 mmHg 74%
19:00 +8°C° 0.1 mm 3 mps 736 mmHg 76%
20:00 +7°C° 0.1 mm 3 mps 736 mmHg 79%
21:00 +7°C° 0 mm 3 mps 736 mmHg 81%
22:00 +6°C° 0 mm 2 mps 736 mmHg 82%
23:00 +5°C° 0 mm 2 mps 736 mmHg 83%

20 April, Tuesday

Time Temperature Precipitation Wind Pressure Humidity
00:00 +5°C° 0 mm 2 mps 735 mmHg 85%
01:00 +5°C° 0 mm 2 mps 735 mmHg 86%
02:00 +4°C° 0 mm 2 mps 734 mmHg 87%
03:00 +4°C° 0 mm 2 mps 734 mmHg 89%
04:00 +4°C° 0 mm 2 mps 734 mmHg 91%
05:00 +5°C° 0 mm 1 mps 734 mmHg 92%
06:00 +5°C° 0.1 mm 2 mps 734 mmHg 91%
07:00 +5°C° 0.1 mm 2 mps 733 mmHg 89%
08:00 +6°C° 0.1 mm 2 mps 733 mmHg 88%
09:00 +7°C° 0.1 mm 3 mps 733 mmHg 81%
10:00 +7°C° 0.1 mm 4 mps 733 mmHg 74%
11:00 +8°C° 0.1 mm 6 mps 732 mmHg 67%
12:00 +8°C° 0.2 mm 6 mps 732 mmHg 66%
13:00 +8°C° 0.2 mm 6 mps 732 mmHg 64%
14:00 +9°C° 0.2 mm 6 mps 732 mmHg 62%
15:00 +9°C° 0.2 mm 6 mps 731 mmHg 64%
16:00 +9°C° 0.2 mm 6 mps 731 mmHg 66%
17:00 +9°C° 0.2 mm 6 mps 731 mmHg 67%
18:00 +7°C° 0.1 mm 5 mps 731 mmHg 73%
19:00 +6°C° 0.1 mm 4 mps 731 mmHg 78%
20:00 +5°C° 0.1 mm 4 mps 731 mmHg 83%
21:00 +5°C° 0.3 mm 4 mps 731 mmHg 85%
22:00 +5°C° 0.3 mm 4 mps 731 mmHg 88%
23:00 +5°C° 0.3 mm 5 mps 731 mmHg 90%

21 April, Wednesday

Time Temperature Precipitation Wind Pressure Humidity
00:00 +4°C° 0 mm 4 mps 732 mmHg 89%
01:00 +4°C° 0 mm 4 mps 732 mmHg 89%
02:00 +4°C° 0 mm 4 mps 732 mmHg 88%
03:00 +4°C° 0 mm 4 mps 732 mmHg 90%
04:00 +2°C° 0 mm 5 mps 732 mmHg 92%
05:00 +2°C° 0 mm 5 mps 732 mmHg 94%
06:00 +3°C° 0 mm 5 mps 732 mmHg 90%
07:00 +3°C° 0 mm 6 mps 733 mmHg 86%
08:00 +4°C° 0 mm 6 mps 733 mmHg 82%
09:00 +5°C° 0 mm 6 mps 733 mmHg 75%
10:00 +8°C° 0 mm 7 mps 734 mmHg 67%
11:00 +9°C° 0 mm 7 mps 734 mmHg 60%
12:00 +10°C° 0.1 mm 7 mps 734 mmHg 58%
13:00 +10°C° 0.1 mm 6 mps 734 mmHg 55%
14:00 +11°C° 0.1 mm 6 mps 734 mmHg 53%
15:00 +12°C° 0.1 mm 5 mps 735 mmHg 53%
16:00 +12°C° 0.1 mm 5 mps 735 mmHg 54%
17:00 +12°C° 0.1 mm 4 mps 735 mmHg 54%
18:00 +10°C° 0 mm 3 mps 735 mmHg 60%
19:00 +9°C° 0 mm 2 mps 736 mmHg 67%
20:00 +8°C° 0 mm 1 mps 736 mmHg 73%
21:00 +7°C° 0 mm 1 mps 737 mmHg 74%
22:00 +7°C° 0 mm 1 mps 737 mmHg 76%
23:00 +6°C° 0 mm 1 mps 737 mmHg 78%
Show more